Regional Weather Roundup
Issued by NWS

Home | Current Version | Previous Version | Text Only | Print | Product List | Glossary Off
Versions: 1 2 3 4 5 6 7 8 9 10 11 12 13 14 15 16 17 18 19 20 21 22 23 24 25 26 27 28 29 30 31 32 33 34 35 36 37 38 39 40 41 42 43 44 45 46 47 48 49 50

000
ASUS43 KLOT 272304
RWRIL

ILLINOIS REGIONAL WEATHER ROUNDUP
NATIONAL WEATHER SERVICE CHICAGO/ROMEOVILLE IL
600 PM CDT SAT MAY 27 2017

NOTE: "FAIR" INDICATES FEW OR NO CLOUDS BELOW 12,000 FEET WITH NO
SIGNIFICANT WEATHER AND/OR OBSTRUCTIONS TO VISIBILITY.

* THESE STATIONS ARE NOT UNDER NWS QUALITY CONTROL. THEY ALSO MAY NOT
  REPORT WEATHER SUCH AS PRECIPITATION OR FOG.

ILZ001-002-007-009-015-016-024-280000-
NORTHWEST ILLINOIS

CITY           SKY/WX    TMP DP  RH WIND       PRES   REMARKS
MOLINE         CLOUDY    75  62  64 E6        29.82F
STERLING*      MOSUNNY   75  65  70 CALM      29.84F
SAVANNA*       CLOUDY    71  60  67 CALM      29.85S
$$

ILZ003-004-008-010-011-017-018-280000-
NORTH CENTRAL ILLINOIS

CITY           SKY/WX    TMP DP  RH WIND       PRES   REMARKS
ROCKFORD       CLOUDY    76  60  57 CALM      29.85F
FREEPORT*      CLOUDY    73  58  60 CALM      29.87S
ROCHELLE*      MOSUNNY   75  61  61 CALM      29.85F
DE KALB*       MOSUNNY   74  62  66 CALM      29.85F
PERU*          MOSUNNY   75  59  57 CALM      29.85R
$$

ILZ005-006-012>014-019>023-280000-
NORTHEAST ILLINOIS

CITY           SKY/WX    TMP DP  RH WIND       PRES   REMARKS
CHICAGO-OHARE  MOSUNNY   73  56  54 E10       29.85F
CHICAGO-MIDWAY PTSUNNY   72  57  59 E9        29.85F
AURORA         SUNNY     78  58  49 E3        29.84F
LANSING*       MOSUNNY   69  60  70 NE9       29.85F
JOLIET*        SUNNY     77  60  56 CALM      29.84F
WAUKEGAN       SUNNY     67  54  63 SE12      29.86F
DUPAGE AIRPORT SUNNY     78  58  49 CALM      29.84F HAZE
KANKAKEE*      SUNNY     82  61  48 CALM      29.86S HX  83
WHEELING       SUNNY     70  57  63 E8        29.87F
MORRIS*        SUNNY     77  59  54 CALM      29.83F
ROMEOVILLE*    SUNNY     77  62  59 CALM      29.84F
$$

LMZ740>746-280000-
SOUTHERN LAKE MICHIGAN

STATION/POSITION SKY/WX   TEMP    WIND        PRES    VSBY  WAVE
                          AIR SEA DIR/SP/G                  HT/PER
                          (F)     (DEG/KT/KT) (MB)    (MI)  (FT/S)
SOUTHERN BUOY              54 52  360/  6/  6 1011.8          0
WILMETTE HARBOR            53 55                N/A           1
HARRISON CRIB              61     120/  1/  2   N/A
BURNHAM HARBOR             57      70/  2/  4   N/A
CALUMET HARBOR             58      40/  4/  5 1011.9S
BURNS HARBOR               59      60/  8/  9 1012.2F
MICHIGAN CITY              57      10/  3/  3   N/A
MICHIGAN CITY 6N           56 57   60/  4/  6   N/A           1
ST. JOSEPH                 59 60   40/  6/  8 1012.0R         1/ 2
$$

ILZ025>027-034>036-040-047-049-050-058-095>099-280000-
WEST-CENTRAL ILLINOIS

CITY           SKY/WX    TMP DP  RH WIND       PRES   REMARKS
QUINCY         CLOUDY    74  62  66 SE21G33   29.72F
GALESBURG*     CLOUDY    73  64  72 SE5       29.83R
MACOMB*        CLOUDY    74  64  69 SE9       29.84S
JACKSONVILLE*  CLOUDY    75  64  67 S9        29.87R
PITTSFIELD*    LGT RAIN  73  66  77 SE21      29.78F
$$

ILZ028>032-037-038-041>044-048-051>054-059>061-280000-
CENTRAL ILLINOIS

CITY           SKY/WX    TMP DP  RH WIND       PRES   REMARKS
PONTIAC        MOSUNNY   78  63  61 SE5       29.85S
BLOOMINGTON    CLOUDY    76  63  64 S8        29.87R
DECATUR        CLOUDY    76  62  62 E6        29.85F
PEORIA         PTSUNNY   76  63  64 E5        29.83F
LACON*         CLOUDY    76  62  63 CALM      29.83S
LINCOLN*       CLOUDY    80  62  53 SE7       29.84S HX  82
SPRINGFIELD    CLOUDY    78  63  59 S3        29.84R HX  80
TAYLORVILLE    CLOUDY    77  63  62 S3        29.85S
$$

ILZ033-039-045-046-055>057-062-063-280000-
EAST-CENTRAL ILLINOIS

CITY           SKY/WX    TMP DP  RH WIND       PRES   REMARKS
CHAMPAIGN      CLOUDY    73  63  70 SE6       29.87R
RANTOUL*       CLOUDY    75  65  71 SE3       29.87R
MATTOON        PTSUNNY   76  66  71 CALM      29.83F
$$

ILZ079-100>102-280000-
SOUTHWEST ILLINOIS

CITY           SKY/WX    TMP DP  RH WIND       PRES   REMARKS
ALTON          RAIN      64  63  94 W23G32    29.94R
BELLEVILLE     TSTM      70  66  86 NW28G43   29.95R
CAHOKIA*       RAIN      69  61  75 SW15G30   29.97R
SPARTA*        TSTM      68  63  83 W24G36    29.97R
$$

ILZ064>066-069>071-074>076-080>082-084>086-088>090-092>094-280000-
SOUTH-CENTRAL ILLINOIS

CITY           SKY/WX    TMP DP  RH WIND       PRES   REMARKS
CARBONDALE     LGT RAIN  66  65  96 SW13      29.84R
CAIRO*         TSTM      65  64  94 SW10      29.88R
EFFINGHAM*     CLOUDY    78  66  67 CALM      29.85S HX  80
MARION         CLOUDY    70  64  83 S14       29.84R
MT. VERNON       N/A     66  63  90 CALM      29.83S
CENTRALIA*     LGT RAIN  75  68  77 W6        29.83S
SALEM*         CLOUDY    78  65  64 SW7       29.84R HX  80
$$

ILZ067-068-072-073-078-083-087-091-280000-
SOUTHEAST ILLINOIS

CITY           SKY/WX    TMP DP  RH WIND       PRES   REMARKS
LAWRENCEVILLE  CLOUDY    79  68  69 N9        29.81F HX  81
FLORA*         PTSUNNY   76  65  69 W7        29.84S
FAIRFIELD*     CLOUDY    73  60  65 W3        29.81R
HARRISBURG*    CLOUDY    70  63  80 W5        29.78F
ROBINSON*      PTSUNNY   76  65  67 N7        29.83F
CARMI*         CLOUDY    72  65  79 NW16      29.79F
$$

ABBREVIATIONS USED IN REMARKS
   TC - TEMPERATURE IN CELSIUS
  WCI - WIND CHILL INDEX
   HX - HEAT INDEX
  VSB - VISIBILITY
$$





USA.gov is the U.S. government's official web portal to all federal, state and local government web resources and services.